Weather History for KSMQ - August, 2013

Change the Weather History Date:

Thursday, August 1, 2013

  Actual Average Record
Temperature  
Mean Temperature 67 °F -  
Max Temperature 70 °F 83 °F 101 °F (1955)
Min Temperature 64 °F 62 °F 51 °F (1964)
Cooling Degree Days 2    
Growing Degree Days 17 (Base 50)    
Moisture  
Dew Point 66 °F    
Average Humidity 95    
Maximum Humidity 100    
Minimum Humidity 88    
Precipitation  
Precipitation 0.69 in - - ()
Sea Level Pressure  
Sea Level Pressure 29.89 in    
Wind  
Wind Speed 2 mph (SSE)    
Max Wind Speed 9 mph    
Max Gust Speed 16 mph    
Visibility 3 miles    
Events Rain    
Averages and records for this station are not official NWS values.
T = Trace of Precipitation, MM = Missing Value Source: NWS Daily Summary

Daily Weather History Graph

Daily Weather History Graph

Search for Another Location

Airport or City:

Trip Planner

Search our weather history database for the weather conditions in past years. The results will help you decide how hot, cold, wet, or windy it might be!

Date:

Astronomy

Aug. 01, 2013 Rise Set
Actual Time 5:55 AM EDT 8:13 PM EDT
Civil Twilight 5:25 AM EDT 8:44 PM EDT
Nautical Twilight 4:47 AM EDT 9:21 PM EDT
Astronomical Twilight 4:05 AM EDT 10:03 PM EDT
Moon 1:30 AM EDT (8/1) 4:20 PM EDT (8/1)
Length of Visible Light 15h 19m
Length of Day
14h 17m
Waning Crescent, 23% of the Moon is Illuminated
Aug 1
Waning Crescent
Aug 6
New
Aug 14
First Quarter
Aug 20
Full
Aug 28
Last Quarter

Hourly Weather History & Observations

Time (EDT) Temp. Dew Point Humidity Pressure Visibility Wind Dir Wind Speed Gust Speed Precip Events Conditions
12:53 AM 66.0 °F 64.0 °F 93% 30.02 in 10.0 mi Calm Calm - N/A   Scattered Clouds
1:53 AM 66.0 °F 64.0 °F 93% 30.00 in 9.0 mi Calm Calm - N/A   Overcast
2:53 AM 66.0 °F 64.0 °F 93% 29.98 in 9.0 mi Calm Calm - N/A   Partly Cloudy
3:53 AM 64.9 °F 64.0 °F 97% 29.96 in 7.0 mi Calm Calm - N/A   Clear
4:53 AM 64.9 °F 64.0 °F 97% 29.96 in 7.0 mi Calm Calm - N/A   Clear
5:53 AM 64.9 °F 64.0 °F 97% 29.95 in 6.0 mi Calm Calm - N/A   Scattered Clouds
6:53 AM 66.0 °F 64.9 °F 96% 29.95 in 5.0 mi North - - N/A   Overcast
7:53 AM 68.0 °F 64.9 °F 90% 29.95 in 8.0 mi Calm Calm - N/A   Overcast
8:50 AM 68.0 °F 66.2 °F 94% 29.95 in 1.8 mi South 5.8 mph - 0.04 in Rain Light Rain
8:53 AM 68.0 °F 66.0 °F 93% 29.94 in 1.8 mi SSE 3.5 mph - 0.05 in Rain Light Rain
9:08 AM 68.0 °F 66.2 °F 94% 29.94 in 2.0 mi South 3.5 mph - 0.03 in Rain Light Rain
9:10 AM 68.0 °F 66.2 °F 94% 29.94 in 1.8 mi South 3.5 mph - 0.04 in Rain Light Rain
9:26 AM 68.0 °F 66.2 °F 94% 29.94 in 2.0 mi Calm Calm - 0.04 in Rain Light Rain
9:46 AM 68.0 °F 66.2 °F 94% 29.93 in 3.0 mi Calm Calm - 0.05 in   Overcast
9:53 AM 68.0 °F 66.9 °F 96% 29.94 in 2.5 mi SSE 4.6 mph - 0.05 in Rain Light Rain
10:03 AM 68.0 °F 66.2 °F 94% 29.93 in 1.8 mi SSE 5.8 mph 16.1 mph 0.02 in Rain Light Rain
10:13 AM 68.0 °F 66.2 °F 94% 29.94 in 2.0 mi South 3.5 mph - 0.02 in Rain Light Rain
10:22 AM 68.0 °F 66.2 °F 94% 29.93 in 1.2 mi SSE 5.8 mph - 0.08 in Rain Rain
10:34 AM 68.0 °F 66.2 °F 94% 29.93 in 2.0 mi SSE 6.9 mph - 0.10 in Rain Light Rain
10:39 AM 68.0 °F 66.2 °F 94% 29.93 in 1.8 mi SE 6.9 mph - 0.11 in Rain Light Rain
10:50 AM 66.2 °F 66.2 °F 100% 29.93 in 3.0 mi SSE 9.2 mph - 0.12 in Rain Light Rain
10:51 AM 66.9 °F 66.0 °F 97% 29.93 in 3.0 mi SSE 9.2 mph - 0.12 in Rain Light Rain
10:59 AM 66.2 °F 66.2 °F 100% 29.93 in 3.0 mi SSE 6.9 mph - 0.00 in Rain Light Rain
11:18 AM 66.2 °F 64.4 °F 94% 29.93 in 1.8 mi SSE 6.9 mph - 0.04 in Rain Rain
11:43 AM 66.2 °F 64.4 °F 94% 29.93 in 3.0 mi SSE 4.6 mph - 0.09 in Rain Light Rain
11:53 AM 66.0 °F 64.9 °F 96% 29.93 in 3.0 mi SSE 4.6 mph - 0.09 in Rain Light Rain
12:00 PM 66.2 °F 64.4 °F 94% 29.93 in 2.5 mi Calm Calm - 0.01 in Rain Light Rain
12:09 PM 66.2 °F 64.4 °F 94% 29.93 in 1.2 mi Calm Calm - 0.05 in Rain Rain
12:53 PM 66.9 °F 66.0 °F 97% 29.92 in 1.5 mi Variable 3.5 mph - 0.20 in Rain Rain
1:06 PM 66.2 °F 66.2 °F 100% 29.92 in 1.5 mi SSE 5.8 mph - 0.03 in Rain Light Rain
1:15 PM 66.2 °F 66.2 °F 100% 29.91 in 2.0 mi SSE 5.8 mph - 0.05 in Rain Light Rain
1:17 PM 66.2 °F 66.2 °F 100% 29.91 in 2.0 mi Variable 4.6 mph - 0.05 in Rain Light Rain
1:34 PM 66.2 °F 64.4 °F 94% 29.90 in 3.0 mi Variable 3.5 mph - 0.05 in Rain Light Rain
1:53 PM 66.9 °F 66.0 °F 97% 29.89 in 4.0 mi Variable 3.5 mph - 0.05 in Rain Light Rain
2:13 PM 66.2 °F 66.2 °F 100% 29.89 in 2.5 mi Calm Calm - 0.01 in Rain Light Rain
2:27 PM 66.2 °F 66.2 °F 100% 29.89 in 1.8 mi Calm Calm - 0.02 in Rain Light Rain
2:42 PM 66.2 °F 66.2 °F 100% 29.88 in 2.5 mi Calm Calm - 0.03 in Rain Light Rain
2:53 PM 66.9 °F 66.0 °F 97% 29.88 in 2.5 mi SE 3.5 mph - 0.04 in Rain Light Rain
3:07 PM 68.0 °F 66.2 °F 94% 29.88 in 3.0 mi Calm Calm - 0.01 in Rain Light Rain
3:15 PM 68.0 °F 66.2 °F 94% 29.87 in 2.0 mi Calm Calm - 0.04 in Rain Light Rain
3:31 PM 68.0 °F 66.2 °F 94% 29.86 in 3.0 mi East 3.5 mph - 0.05 in Rain Light Rain
3:53 PM 68.0 °F 66.9 °F 96% 29.86 in 4.0 mi Variable 3.5 mph - 0.06 in   Overcast
4:12 PM 68.0 °F 66.2 °F 94% 29.86 in 3.0 mi Calm Calm - N/A   Overcast
4:24 PM 69.8 °F 66.2 °F 88% 29.85 in 2.5 mi Variable 3.5 mph - 0.00 in Rain Light Rain
4:33 PM 69.8 °F 66.2 °F 88% 29.85 in 1.8 mi Calm Calm - 0.00 in Rain Light Rain
4:45 PM 69.8 °F 68.0 °F 94% 29.85 in 2.5 mi Variable 5.8 mph - 0.01 in Rain Light Rain
4:53 PM 69.1 °F 68.0 °F 96% 29.84 in 3.0 mi Calm Calm - 0.01 in Rain Light Rain
5:02 PM 69.8 °F 68.0 °F 94% 29.84 in 4.0 mi Calm Calm - 0.00 in Rain Light Rain
5:21 PM 69.8 °F 68.0 °F 94% 29.84 in 2.5 mi Calm Calm - 0.00 in Rain Light Rain
5:53 PM 70.0 °F 68.0 °F 93% 29.83 in 1.5 mi Calm Calm - 0.01 in   Overcast
6:45 PM 69.8 °F 68.0 °F 94% 29.84 in 2.0 mi SSE 3.5 mph - 0.01 in   Overcast
6:53 PM 69.1 °F 68.0 °F 96% 29.83 in 2.0 mi Calm Calm - 0.01 in   Overcast
7:14 PM 69.8 °F 68.0 °F 94% 29.84 in 3.0 mi Calm Calm - N/A   Overcast
7:53 PM 70.0 °F 68.0 °F 93% 29.85 in 4.0 mi Calm Calm - N/A   Overcast
8:17 PM 69.8 °F 68.0 °F 94% 29.84 in 2.0 mi Calm Calm - 0.00 in Rain Light Rain
8:53 PM 69.1 °F 68.0 °F 96% 29.84 in 3.0 mi Calm Calm - 0.00 in   Overcast
9:01 PM 69.8 °F 68.0 °F 94% 29.84 in 2.5 mi SSE 3.5 mph - N/A   Overcast
9:13 PM 69.8 °F 68.0 °F 94% 29.85 in 3.0 mi Calm Calm - N/A   Overcast
9:53 PM 70.0 °F 68.0 °F 93% 29.84 in 4.0 mi North 3.5 mph - N/A   Overcast
10:07 PM 69.8 °F 68.0 °F 94% 29.83 in 3.0 mi Calm Calm - N/A   Overcast
10:39 PM 69.8 °F 68.0 °F 94% 29.83 in 1.8 mi Calm Calm - 0.00 in   Overcast
10:48 PM 69.8 °F 68.0 °F 94% 29.83 in 2.0 mi Calm Calm - 0.00 in   Overcast
10:49 PM 69.1 °F 68.0 °F 96% 29.83 in 2.0 mi Calm Calm - 0.00 in   Overcast
11:00 PM 69.8 °F 68.0 °F 94% 29.83 in 1.5 mi Calm Calm - N/A   Overcast
11:11 PM 69.8 °F 68.0 °F 94% 29.83 in 2.5 mi Calm Calm - N/A   Overcast
11:31 PM 69.8 °F 68.0 °F 94% 29.83 in 3.0 mi Calm Calm - N/A   Overcast
11:53 PM 69.1 °F 68.0 °F 96% 29.83 in 3.0 mi Calm Calm - N/A   Overcast